Hannibal Rgnl AP, Hannibal, M, MO

5:44 PM CST on December 15, 2019 (GMT -0600)
Hannibal Municipal

Weather History for KHAE - October, 2019

Change the Weather History Date:

Sunday, October 20, 2019

  Actual Average Record
Temperature  
Mean Temperature 54 °F -  
Max Temperature 66 °F 62 °F 82 °F (2015)
Min Temperature 42 °F 40 °F 35 °F (2018)
Degree Days  
Heating Degree Days 11    
Growing Degree Days 4 (Base 50)    
Moisture  
Dew Point 46 °F    
Average Humidity 76    
Maximum Humidity 100    
Minimum Humidity 46    
Precipitation  
Precipitation 0.00 in - - ()
Sea Level Pressure  
Sea Level Pressure 29.85 in    
Wind  
Wind Speed 3 mph ()    
Max Wind Speed 12 mph    
Max Gust Speed 17 mph    
Visibility 6.9 miles    
Events Fog    
Averages and records for this station are not official NWS values.
T = Trace of Precipitation, MM = Missing Value Source: Averaged Metar Reports

Daily Weather History Graph

Daily Weather History Graph

Search for Another Location

Airport or City:

Astronomy

Oct. 20, 2019 Rise Set
Actual Time 7:20 AM CDT 6:19 PM CDT
Civil Twilight 6:53 AM CDT 6:46 PM CDT
Nautical Twilight 6:22 AM CDT 7:18 PM CDT
Astronomical Twilight 5:50 AM CDT 7:49 PM CDT
Moon 11:29 PM CDT (10/20) 1:48 PM CDT (10/20)
Length of Visible Light 11h 53m
Length of Day
10h 58m
Waning Gibbous, 59% of the Moon is Illuminated
Oct 20
Waning Gibbous
Oct 21
Last Quarter
Oct 27
New
Nov 4
First Quarter
Nov 12
Full

Hourly Weather History & Observations

Time (CDT) Temp. Dew Point Humidity Pressure Visibility Wind Dir Wind Speed Gust Speed Precip Events Conditions
12:15 AM 53.6 °F 50.0 °F 88% 29.85 in 10.0 mi NNW 6.9 mph - N/A   Overcast
12:35 AM 51.8 °F 48.2 °F 88% 29.84 in 10.0 mi Calm Calm - N/A   Scattered Clouds
12:55 AM 51.8 °F 48.2 °F 88% 29.83 in 10.0 mi Calm Calm - N/A   Clear
1:15 AM 48.2 °F 44.6 °F 87% 29.83 in 7.0 mi Calm Calm - N/A   Clear
1:35 AM 50.0 °F 46.4 °F 87% 29.83 in 10.0 mi Calm Calm - N/A   Clear
1:55 AM 46.4 °F 44.6 °F 93% 29.84 in 5.0 mi Calm Calm - N/A   Clear
2:15 AM 46.4 °F 42.8 °F 87% 29.85 in 1.0 mi Calm Calm - N/A   Mist
2:35 AM 44.6 °F 42.8 °F 93% 29.85 in 0.2 mi Calm Calm - N/A Fog Fog
2:55 AM 42.8 °F 41.0 °F 93% 29.84 in 0.2 mi Calm Calm - N/A Fog Fog
3:15 AM 42.8 °F 41.0 °F 93% 29.85 in 0.2 mi Calm Calm - N/A Fog Fog
3:35 AM 42.8 °F 41.0 °F 93% 29.84 in 0.2 mi Calm Calm - N/A Fog Fog
4:15 AM 42.8 °F 42.8 °F 100% 29.85 in 0.2 mi Calm Calm - N/A Fog Fog
4:35 AM 42.8 °F 41.0 °F 93% 29.86 in 0.2 mi Calm Calm - N/A Fog Fog
4:55 AM 42.8 °F 41.0 °F 93% 29.86 in 0.2 mi Calm Calm - N/A Fog Fog
5:15 AM 42.8 °F 42.8 °F 100% 29.86 in 0.2 mi Calm Calm - N/A Fog Fog
5:35 AM 42.8 °F 41.0 °F 93% 29.87 in 0.2 mi Calm Calm - N/A Fog Fog
5:55 AM 42.8 °F 41.0 °F 93% 29.87 in 0.5 mi Calm Calm - N/A Fog Fog
6:15 AM 42.8 °F 41.0 °F 93% 29.88 in 0.2 mi Calm Calm - N/A Fog Fog
6:35 AM 44.6 °F 42.8 °F 93% 29.89 in 0.2 mi Calm Calm - N/A Fog Fog
7:15 AM 46.4 °F 44.6 °F 93% 29.90 in 0.5 mi Calm Calm - N/A Fog Fog
7:35 AM 48.2 °F 46.4 °F 93% 29.90 in 0.2 mi Calm Calm - N/A Fog Fog
7:55 AM 50.0 °F 46.4 °F 87% 29.90 in 0.2 mi Calm Calm - N/A Fog Fog
8:15 AM 50.0 °F 48.2 °F 94% 29.91 in 0.8 mi East 4.6 mph - N/A   Overcast
8:35 AM 50.0 °F 48.2 °F 94% 29.92 in 3.0 mi East 3.5 mph - N/A   Overcast
8:55 AM 50.0 °F 48.2 °F 94% 29.93 in 4.0 mi ENE 3.5 mph - N/A   Overcast
9:15 AM 50.0 °F 48.2 °F 94% 29.93 in 3.0 mi East 3.5 mph - N/A   Overcast
9:35 AM 50.0 °F 48.2 °F 94% 29.93 in 3.0 mi East 5.8 mph - N/A   Overcast
9:55 AM 50.0 °F 48.2 °F 94% 29.93 in 4.0 mi East 4.6 mph - N/A   Overcast
10:15 AM 51.8 °F 50.0 °F 94% 29.93 in 5.0 mi East 6.9 mph - N/A   Overcast
10:35 AM 51.8 °F 50.0 °F 94% 29.93 in 7.0 mi East 5.8 mph - N/A   Overcast
10:55 AM 53.6 °F 51.8 °F 94% 29.93 in 7.0 mi ESE 6.9 mph - N/A   Overcast
11:15 AM 53.6 °F 51.8 °F 94% 29.93 in 10.0 mi SE 5.8 mph - N/A   Scattered Clouds
11:35 AM 57.2 °F 50.0 °F 77% 29.92 in 10.0 mi East 6.9 mph - N/A   Clear
11:55 AM 60.8 °F 46.4 °F 59% 29.91 in 10.0 mi ENE 6.9 mph - N/A   Clear
12:15 PM 62.6 °F 46.4 °F 55% 29.91 in 10.0 mi ESE 6.9 mph - N/A   Clear
12:35 PM 62.6 °F 46.4 °F 55% 29.90 in 10.0 mi East 5.8 mph - N/A   Clear
12:55 PM 64.4 °F 46.4 °F 52% 29.90 in 10.0 mi East 5.8 mph - N/A   Clear
1:15 PM 64.4 °F 44.6 °F 49% 29.90 in 10.0 mi East 8.1 mph - N/A   Clear
1:35 PM 66.2 °F 44.6 °F 46% 29.88 in 10.0 mi East 6.9 mph - N/A   Clear
1:55 PM 66.2 °F 44.6 °F 46% 29.87 in 10.0 mi ESE 6.9 mph - N/A   Clear
2:15 PM 66.2 °F 44.6 °F 46% 29.86 in 10.0 mi SE 5.8 mph - N/A   Clear
2:35 PM 66.2 °F 44.6 °F 46% 29.85 in 10.0 mi ESE 8.1 mph - N/A   Clear
2:55 PM 66.2 °F 44.6 °F 46% 29.84 in 10.0 mi SE 9.2 mph - N/A   Clear
3:15 PM 66.2 °F 44.6 °F 46% 29.83 in 10.0 mi SE 9.2 mph - N/A   Clear
3:35 PM 66.2 °F 44.6 °F 46% 29.83 in 10.0 mi SE 11.5 mph 16.1 mph N/A   Clear
3:55 PM 66.2 °F 44.6 °F 46% 29.83 in 10.0 mi ESE 10.4 mph - N/A   Clear
4:15 PM 64.4 °F 46.4 °F 52% 29.82 in 10.0 mi SE 6.9 mph - N/A   Clear
4:35 PM 64.4 °F 46.4 °F 52% 29.82 in 10.0 mi SE 8.1 mph - N/A   Clear
4:55 PM 62.6 °F 46.4 °F 55% 29.82 in 10.0 mi ESE 9.2 mph - N/A   Clear
5:15 PM 60.8 °F 46.4 °F 59% 29.81 in 10.0 mi SE 8.1 mph 16.1 mph N/A   Clear
5:35 PM 60.8 °F 46.4 °F 59% 29.81 in 10.0 mi ESE 8.1 mph - N/A   Clear
5:55 PM 59.0 °F 46.4 °F 63% 29.80 in 10.0 mi ESE 9.2 mph 17.3 mph N/A   Clear
6:15 PM 59.0 °F 46.4 °F 63% 29.81 in 10.0 mi SE 8.1 mph - N/A   Clear
6:35 PM 57.2 °F 46.4 °F 67% 29.80 in 10.0 mi SE 6.9 mph - N/A   Scattered Clouds
6:55 PM 57.2 °F 46.4 °F 67% 29.80 in 10.0 mi SE 5.8 mph - N/A   Mostly Cloudy
7:15 PM 57.2 °F 46.4 °F 67% 29.81 in 10.0 mi SE 5.8 mph - N/A   Overcast
7:35 PM 57.2 °F 48.2 °F 72% 29.81 in 10.0 mi ESE 5.8 mph - N/A   Overcast
7:55 PM 57.2 °F 48.2 °F 72% 29.81 in 10.0 mi ESE 5.8 mph - N/A   Mostly Cloudy
8:15 PM 57.2 °F 48.2 °F 72% 29.80 in 10.0 mi ESE 5.8 mph - N/A   Scattered Clouds
8:35 PM 55.4 °F 48.2 °F 77% 29.80 in 10.0 mi ESE 4.6 mph - N/A   Mostly Cloudy
8:55 PM 57.2 °F 48.2 °F 72% 29.80 in 10.0 mi ESE 6.9 mph - N/A   Mostly Cloudy
9:15 PM 57.2 °F 50.0 °F 77% 29.79 in 10.0 mi ESE 6.9 mph - N/A   Mostly Cloudy
9:35 PM 59.0 °F 50.0 °F 72% 29.78 in 10.0 mi ESE 5.8 mph - N/A   Overcast
9:55 PM 59.0 °F 50.0 °F 72% 29.76 in 10.0 mi ESE 8.1 mph - N/A   Mostly Cloudy
10:15 PM 59.0 °F 50.0 °F 72% 29.75 in 10.0 mi ESE 8.1 mph - N/A   Clear
10:55 PM 57.2 °F 50.0 °F 77% 29.71 in 10.0 mi ESE 6.9 mph - N/A   Clear
11:15 PM 57.2 °F 50.0 °F 77% 29.69 in 10.0 mi ESE 6.9 mph - N/A   Clear
11:35 PM 57.2 °F 50.0 °F 77% 29.68 in 10.0 mi ESE 5.8 mph - N/A   Clear
11:55 PM 57.2 °F 51.8 °F 82% 29.68 in 10.0 mi ESE 5.8 mph - N/A   Scattered Clouds